COSMOS 1812

Last updated on Sat Oct 18 2025 00:02:14 GMT+0000 (Coordinated Universal Time)

1 17295U 87003A 25290.44817478 .00078057 00000+0 77961-3 0 9992 2 17295 82.4941 352.4432 0002349 237.7745 122.3287 15.65336900121827
UTC large
Height (km)
Speed (km/s)
/
Latitude / Longitude
Inclination (degrees)
Orbital Period (minutes)
Azimuth
Elevation
Range (km)
Doppler Factor

Next 0 passes for location: London (51.5072 / 0.1276)

Sorry there are no passes over London.